Milton, FL

10:04 PM CST on December 08, 2016 (GMT -0600)
Whiting Field Naval Air Station (North)

Weather History for KNSE - September, 2012

Change the Weather History Date:

Sunday, September 30, 2012

  Actual Average Record
Temperature  
Mean Temperature 76 °F -  
Max Temperature 81 °F 80 °F 91 °F (1997)
Min Temperature 72 °F 63 °F 53 °F (2003)
Cooling Degree Days 11    
Growing Degree Days 26 (Base 50)    
Moisture  
Dew Point 74 °F    
Average Humidity 94    
Maximum Humidity 100    
Minimum Humidity 84    
Precipitation  
Precipitation 0.99 in - - ()
Sea Level Pressure  
Sea Level Pressure 29.74 in    
Wind  
Wind Speed 5 mph (SE)    
Max Wind Speed 29 mph    
Max Gust Speed 34 mph    
Visibility 7 miles    
Events Fog , Rain , Thunderstorm    
Averages and records for this station are not official NWS values.
T = Trace of Precipitation, MM = Missing Value Source: NWS Daily Summary

Daily Weather History Graph

Daily Weather History Graph

Search for Another Location

Airport or City:

Trip Planner

Search our weather history database for the weather conditions in past years. The results will help you decide how hot, cold, wet, or windy it might be!

Date:

Astronomy

Sep. 30, 2012 Rise Set
Actual Time 6:41 AM CDT 6:33 PM CDT
Civil Twilight 6:17 AM CDT 6:57 PM CDT
Nautical Twilight 5:49 AM CDT 7:25 PM CDT
Astronomical Twilight 5:21 AM CDT 7:53 PM CDT
Moon 6:44 PM CDT (9/30) 7:05 AM CDT (9/30)
Length of Visible Light 12h 40m
Length of Day
11h 52m
Full, 100% of the Moon is Illuminated
Sep 30
Full
Oct 8
Last Quarter
Oct 15
New
Oct 21
First Quarter
Oct 29
Full

Hourly Weather History & Observations

Time (CDT) Temp. Heat Index Dew Point Humidity Pressure Visibility Wind Dir Wind Speed Gust Speed Precip Events Conditions
12:56 AM 73.0 °F - 72.0 °F 96% 29.83 in 5.0 mi Calm Calm - N/A   Overcast
1:56 AM 73.0 °F - 72.0 °F 96% 29.83 in 6.0 mi Calm Calm - 0.00 in Rain Light Rain
2:56 AM 73.0 °F - 72.0 °F 96% 29.81 in 6.0 mi ENE 3.5 mph - 0.00 in Rain Light Rain
3:56 AM 73.0 °F - 71.1 °F 93% 29.79 in 7.0 mi East 3.5 mph - 0.00 in   Clear
4:56 AM 72.0 °F - 71.1 °F 97% 29.78 in 6.0 mi East 4.6 mph - 0.00 in   Mostly Cloudy
5:56 AM 73.0 °F - 72.0 °F 96% 29.78 in 7.0 mi Calm Calm - 0.00 in   Mostly Cloudy
6:56 AM 73.0 °F - 72.0 °F 96% 29.78 in 6.0 mi East 3.5 mph - 0.00 in   Mostly Cloudy
7:56 AM 73.9 °F - 73.0 °F 97% 29.79 in 8.0 mi Calm Calm - 0.01 in Rain Light Rain
8:56 AM 75.0 °F - 73.9 °F 96% 29.79 in 6.0 mi Calm Calm - 0.00 in   Overcast
9:06 AM 75.2 °F - 73.4 °F 94% 29.83 in 6.0 mi East 3.5 mph - N/A   Overcast
9:21 AM 75.2 °F - 75.2 °F 100% 29.84 in 6.0 mi ESE 3.5 mph - N/A   Overcast
9:43 AM 77.0 °F - 75.2 °F 94% 29.83 in 8.0 mi East 4.6 mph - N/A   Overcast
9:56 AM 78.1 °F - 75.9 °F 93% 29.79 in 8.0 mi East 6.9 mph - N/A   Overcast
10:16 AM 78.8 °F - 75.2 °F 89% 29.83 in 8.0 mi ESE 8.1 mph - N/A   Overcast
10:56 AM 78.1 °F - 75.9 °F 93% 29.78 in 9.0 mi ESE 9.2 mph - N/A   Overcast
11:28 AM 80.6 °F 86.2 °F 75.2 °F 84% 29.82 in 10.0 mi ESE 9.2 mph - N/A   Mostly Cloudy
11:56 AM 80.1 °F 85.4 °F 75.9 °F 87% 29.78 in 10.0 mi SE 6.9 mph - 0.00 in   Mostly Cloudy
12:56 PM 80.1 °F 85.4 °F 75.9 °F 87% 29.75 in 10.0 mi SE 4.6 mph - 0.00 in Rain Light Rain
1:56 PM 80.1 °F 85.8 °F 77.0 °F 90% 29.71 in 10.0 mi SE 4.6 mph - 0.00 in Rain , Thunderstorm Light Thunderstorms and Rain
2:18 PM 80.6 °F 86.2 °F 75.2 °F 84% 29.75 in 6.0 mi South 6.9 mph - 0.00 in Rain Light Rain
2:24 PM 78.8 °F - 75.2 °F 89% 29.78 in 1.2 mi SW 28.8 mph 34.5 mph 0.11 in Rain Rain
2:27 PM 75.2 °F - 73.4 °F 94% 29.79 in 0.5 mi SW 17.3 mph 34.5 mph 0.30 in Fog , Rain Heavy Rain
2:32 PM 73.4 °F - 71.6 °F 94% 29.77 in 0.2 mi South 15.0 mph 34.5 mph 0.46 in Fog , Rain , Thunderstorm Heavy Thunderstorms and Rain
2:38 PM 73.4 °F - 71.6 °F 94% 29.77 in 1.0 mi SW 9.2 mph 20.7 mph 0.46 in Rain , Thunderstorm Light Thunderstorms and Rain
2:40 PM 73.4 °F - 71.6 °F 94% 29.76 in 4.0 mi WSW 8.1 mph 20.7 mph 0.46 in Rain , Thunderstorm Light Thunderstorms and Rain
2:49 PM 75.2 °F - 73.4 °F 94% 29.76 in 10.0 mi SW 8.1 mph - 0.46 in Rain , Thunderstorm Light Thunderstorms and Rain
2:56 PM 75.0 °F - 73.0 °F 94% 29.71 in 10.0 mi SW 6.9 mph - 0.46 in Rain , Thunderstorm Light Thunderstorms and Rain
3:05 PM 75.2 °F - 73.4 °F 94% 29.76 in 10.0 mi SW 6.9 mph - 0.00 in Rain Light Rain
3:26 PM 75.2 °F - 73.4 °F 94% 29.75 in 2.0 mi SW 4.6 mph - 0.03 in Rain Rain
3:47 PM 75.2 °F - 73.4 °F 94% 29.75 in 1.5 mi South 5.8 mph - 0.10 in Rain Rain
3:52 PM 75.2 °F - 73.4 °F 94% 29.74 in 4.0 mi SSE 4.6 mph - 0.10 in Rain Light Rain
3:56 PM 75.9 °F - 73.9 °F 94% 29.70 in 6.0 mi Calm Calm - 0.10 in Rain Light Rain
4:10 PM 75.2 °F - 75.2 °F 100% 29.73 in 8.0 mi SE 5.8 mph - 0.00 in Rain Light Rain
4:34 PM 75.2 °F - 75.2 °F 100% 29.73 in 9.0 mi SE 5.8 mph - 0.00 in   Mostly Cloudy
4:56 PM 75.9 °F - 73.9 °F 94% 29.68 in 7.0 mi ESE 5.8 mph - 0.00 in Rain Light Rain
5:14 PM 75.2 °F - 73.4 °F 94% 29.72 in 7.0 mi ESE 4.6 mph - 0.00 in   Mostly Cloudy
5:32 PM 75.2 °F - 73.4 °F 94% 29.72 in 7.0 mi ESE 5.8 mph - 0.00 in Rain Light Rain
5:41 PM 75.2 °F - 73.4 °F 94% 29.72 in 7.0 mi East 4.6 mph - 0.00 in   Mostly Cloudy
5:56 PM 75.0 °F - 73.9 °F 96% 29.67 in 7.0 mi East 6.9 mph - 0.00 in   Overcast
6:08 PM 75.2 °F - 73.4 °F 94% 29.70 in 7.0 mi ESE 6.9 mph - N/A   Overcast
6:56 PM 75.0 °F - 73.9 °F 96% 29.65 in 10.0 mi ESE 5.8 mph - N/A   Overcast
7:54 PM 75.2 °F - 75.2 °F 100% 29.71 in 6.0 mi SSE 6.9 mph - 0.04 in Rain Light Rain
7:56 PM 75.9 °F - 75.0 °F 97% 29.66 in 6.0 mi SSE 5.8 mph - 0.06 in Rain Light Rain
8:20 PM 75.2 °F - 75.2 °F 100% 29.71 in 3.0 mi NNW 3.5 mph - 0.18 in Rain Rain
8:31 PM 75.2 °F - 73.4 °F 94% 29.70 in 3.0 mi Variable 4.6 mph - 0.25 in Rain Rain
8:45 PM 75.2 °F - 73.4 °F 94% 29.70 in 10.0 mi Calm Calm - 0.26 in   Overcast
8:47 PM 75.2 °F - 73.4 °F 94% 29.70 in 6.0 mi Calm Calm - 0.26 in   Overcast
8:56 PM 75.9 °F - 73.9 °F 94% 29.65 in 4.0 mi SSE 5.8 mph - 0.31 in Rain Light Rain
9:11 PM 78.8 °F - 75.2 °F 89% 29.70 in 10.0 mi South 4.6 mph - 0.00 in   Overcast
9:23 PM 78.8 °F - 75.2 °F 89% 29.70 in 6.0 mi SSW 4.6 mph - 0.00 in Rain Light Rain
9:56 PM 77.0 °F - 75.9 °F 96% 29.65 in 6.0 mi ESE 6.9 mph - N/A Rain Light Rain
10:45 PM 78.8 °F - 77.0 °F 94% 29.68 in 5.0 mi SSE 11.5 mph - N/A Rain Light Rain
10:56 PM 78.1 °F - 77.0 °F 96% 29.64 in 10.0 mi SSE 9.2 mph - N/A   Mostly Cloudy
11:01 PM 78.8 °F - 77.0 °F 94% 29.68 in 10.0 mi SSE 8.1 mph - N/A   Mostly Cloudy
11:40 PM 78.8 °F - 77.0 °F 94% 29.66 in 9.0 mi SSE 9.2 mph - 0.00 in   Mostly Cloudy
11:56 PM 79.0 °F - 77.0 °F 94% 29.62 in 9.0 mi South 19.6 mph 25.3 mph 0.05 in   Mostly Cloudy